{"data":{"norad_id":54023,"intl_designator":"2022-127A","name":"OTB-3-GAZELLE","alt_names":[],"object_type":"PAYLOAD","status":"ACTIVE","operator":null,"country":"US","launch_date":"2022-10-07","launch_site_code":"RLLB","launch_vehicle":null,"mission":null,"orbit_class":"UNKNOWN","rcs_meters":null,"size_class":null,"mass_kg":null,"dimensions":null,"purposes":[],"wikipedia_slug":null,"has_3d_model":false,"image_url":null,"decayed_at":null,"tle_current":{"epoch":"2026-05-24T23:08:22.695648Z","epoch_age_seconds":78224,"freshness":"FRESH","line1":"1 54023U 22127A   26144.96415157  .00000126  00000+0  51050-4 0  9996","line2":"2 54023  98.3938 137.0233 0011847 257.8446 102.1417 14.42664706191010","mean_motion":14.42664706,"eccentricity":0.0011847,"inclination_deg":98.3938,"raan_deg":137.0233,"arg_perigee_deg":257.8446,"mean_anomaly_deg":102.1417,"bstar":5.105e-5,"rev_number":19101,"period_min":99.815292771153,"perigee_km":741.2634693331,"apogee_km":758.15218486643,"semimajor_km":7127.8448270998,"source":"CELESTRAK","updated_at":"2026-05-25T13:37:58.520882Z"}}}